Crosby, ND

9:05 AM CDT on June 23, 2017 (GMT -0500)
Crosby

Weather History for KD50 - December, 2013

Change the Weather History Date:

Thursday, December 5, 2013

  Actual Average (KISN) Record (KISN)
Temperature  
Mean Temperature -8 °F -  
Max Temperature -2 °F 26 °F 60 °F (1939)
Min Temperature -13 °F 4 °F -28 °F (1972)
Degree Days  
Heating Degree Days 72    
Moisture  
Dew Point -13 °F    
Average Humidity 76    
Maximum Humidity 84    
Minimum Humidity 71    
Precipitation  
Precipitation 0.04 in - - ()
Sea Level Pressure  
Sea Level Pressure 30.21 in    
Wind  
Wind Speed 17 mph (NW)    
Max Wind Speed 25 mph    
Max Gust Speed 31 mph    
Visibility 8 miles    
Events Rain , Snow    
Averages and records for this station are not official NWS values.
T = Trace of Precipitation, MM = Missing Value Source: NWS Daily Summary

Daily Weather History Graph

Daily Weather History Graph

Search for Another Location

Airport or City:

Trip Planner

Search our weather history database for the weather conditions in past years. The results will help you decide how hot, cold, wet, or windy it might be!

Date:

Astronomy

Dec. 05, 2013 Rise Set
Actual Time 8:30 AM CST 4:56 PM CST
Civil Twilight 7:54 AM CST 5:33 PM CST
Nautical Twilight 7:14 AM CST 6:13 PM CST
Astronomical Twilight 6:35 AM CST 6:51 PM CST
Moon 10:45 AM CST (12/5) 8:29 PM CST (12/5)
Length of Visible Light 9h 39m
Length of Day
8h 26m
Waxing Crescent, 11% of the Moon is Illuminated
Dec 5
Waxing Crescent
Dec 9
First Quarter
Dec 17
Full
Dec 25
Last Quarter
Jan 1
New

Hourly Weather History & Observations

Time (CST) Temp. Windchill Dew Point Humidity Pressure Visibility Wind Dir Wind Speed Gust Speed Precip Events Conditions
12:15 AM -7.6 °F -28.3 °F -11.2 °F 84% 30.13 in 10.0 mi WNW 13.8 mph - N/A   Unknown
12:35 AM -5.8 °F -27.5 °F -11.2 °F 77% 30.13 in 10.0 mi WNW 16.1 mph - N/A   Unknown
12:55 AM -7.6 °F -31.1 °F -11.2 °F 84% 30.12 in 10.0 mi WNW 18.4 mph - N/A   Unknown
1:15 AM -7.6 °F -30.5 °F -11.2 °F 84% 30.12 in 10.0 mi WNW 17.3 mph 21.9 mph N/A   Unknown
1:35 AM -7.6 °F -29.8 °F - N/A% 30.12 in 10.0 mi NW 16.1 mph 21.9 mph N/A   Unknown
1:55 AM -7.6 °F -31.1 °F -11.2 °F 84% 30.12 in 10.0 mi NW 18.4 mph 27.6 mph N/A   Unknown
2:15 AM -7.6 °F -30.5 °F -13.0 °F 77% 30.12 in 10.0 mi NW 17.3 mph - N/A   Unknown
2:35 AM -7.6 °F -29.8 °F -13.0 °F 77% 30.12 in 10.0 mi NW 16.1 mph 24.2 mph N/A   Unknown
2:55 AM -7.6 °F -29.8 °F -13.0 °F 77% 30.12 in 10.0 mi NW 16.1 mph 21.9 mph N/A   Unknown
3:15 AM -7.6 °F -28.3 °F -13.0 °F 77% 30.13 in 10.0 mi NW 13.8 mph - N/A   Unknown
3:35 AM -7.6 °F -29.8 °F -13.0 °F 77% 30.13 in 10.0 mi WNW 16.1 mph 23.0 mph N/A Snow Light Snow
3:55 AM -7.6 °F -29.8 °F -13.0 °F 77% 30.13 in 10.0 mi WNW 16.1 mph - N/A   Unknown
4:15 AM -7.6 °F -29.8 °F -13.0 °F 77% 30.13 in 10.0 mi WNW 16.1 mph 24.2 mph N/A   Unknown
4:35 AM -7.6 °F -29.8 °F -13.0 °F 77% 30.13 in 10.0 mi WNW 16.1 mph - N/A   Unknown
4:55 AM -7.6 °F -29.8 °F -13.0 °F 77% 30.13 in 9.0 mi WNW 16.1 mph - N/A Snow Light Snow
5:15 AM -9.4 °F -32.1 °F -13.0 °F 84% 30.13 in 10.0 mi WNW 16.1 mph - N/A   Unknown
5:35 AM -9.4 °F -32.8 °F -16.6 °F 71% 30.13 in 10.0 mi WNW 17.3 mph 21.9 mph N/A   Unknown
5:55 AM -11.2 °F -34.4 °F -16.6 °F 77% 30.13 in 10.0 mi WNW 16.1 mph - N/A   Unknown
6:15 AM -11.2 °F -35.8 °F -16.6 °F 77% 30.13 in 10.0 mi WNW 18.4 mph - N/A   Unknown
6:35 AM -11.2 °F -35.8 °F -16.6 °F 77% 30.13 in 10.0 mi WNW 18.4 mph - N/A   Unknown
6:55 AM -11.2 °F -35.2 °F -16.6 °F 77% 30.14 in 10.0 mi WNW 17.3 mph - N/A   Unknown
7:15 AM -11.2 °F -34.4 °F -16.6 °F 77% 30.14 in 10.0 mi WNW 16.1 mph - N/A Snow Light Snow
7:35 AM -11.2 °F -33.7 °F -16.6 °F 77% 30.15 in 6.0 mi WNW 15.0 mph - N/A Rain Light Freezing Rain
7:55 AM -9.4 °F -31.4 °F -16.6 °F 71% 30.15 in 5.0 mi WNW 15.0 mph - N/A Rain Light Freezing Rain
8:15 AM -9.4 °F -31.4 °F -16.6 °F 71% 30.15 in 8.0 mi WNW 15.0 mph - N/A Snow Light Snow
8:35 AM -9.4 °F -32.1 °F -16.6 °F 71% 30.15 in 7.0 mi WNW 16.1 mph 23.0 mph N/A Snow Light Snow
8:55 AM -9.4 °F -32.8 °F -14.8 °F 77% 30.15 in 10.0 mi WNW 17.3 mph - N/A Rain Light Freezing Rain
9:15 AM -9.4 °F -32.1 °F -14.8 °F 77% 30.16 in 5.0 mi WNW 16.1 mph - N/A Snow Light Snow
9:35 AM -7.6 °F -31.1 °F -13.0 °F 77% 30.16 in 3.0 mi NW 18.4 mph 23.0 mph 0.01 in Snow Light Snow
9:55 AM -7.6 °F -31.7 °F -13.0 °F 77% 30.17 in 5.0 mi NW 19.6 mph - 0.02 in Snow Light Snow
10:15 AM -5.8 °F -29.9 °F - N/A% 30.17 in 3.0 mi NW 20.7 mph 26.5 mph N/A Snow Light Snow
10:35 AM -5.8 °F -29.9 °F -11.2 °F 77% 30.18 in 2.5 mi NW 20.7 mph 27.6 mph 0.01 in Snow Light Snow
10:55 AM -5.8 °F -28.8 °F -11.2 °F 77% 30.18 in 4.0 mi NW 18.4 mph 25.3 mph 0.01 in Rain Light Freezing Rain
11:15 AM -4.0 °F -25.8 °F -11.2 °F 71% 30.18 in 5.0 mi NW 17.3 mph 25.3 mph N/A Rain Light Freezing Rain
11:35 AM -4.0 °F -27.6 °F -9.4 °F 78% 30.18 in 3.0 mi NW 20.7 mph 26.5 mph N/A Rain Light Freezing Rain
11:55 AM -2.2 °F -26.2 °F -9.4 °F 71% 30.18 in 5.0 mi NW 23.0 mph 28.8 mph N/A Rain Light Freezing Rain
12:15 PM -2.2 °F -27.1 °F -9.4 °F 71% 30.18 in 2.5 mi NW 25.3 mph 29.9 mph N/A Rain Light Freezing Rain
12:35 PM -2.2 °F -26.7 °F -9.4 °F 71% 30.19 in 2.5 mi NW 24.2 mph 31.1 mph N/A Rain Light Freezing Rain
12:55 PM -2.2 °F -25.7 °F -7.6 °F 78% 30.19 in 1.8 mi NW 21.9 mph 28.8 mph 0.01 in Rain Light Freezing Rain
1:15 PM -2.2 °F -25.7 °F -9.4 °F 71% 30.20 in 2.5 mi NW 21.9 mph 29.9 mph N/A Rain Light Freezing Rain
1:35 PM -2.2 °F -26.7 °F -9.4 °F 71% 30.20 in 4.0 mi NW 24.2 mph 28.8 mph N/A Rain Light Freezing Rain
1:55 PM -2.2 °F -26.7 °F -9.4 °F 71% 30.20 in 5.0 mi NW 24.2 mph 29.9 mph N/A Rain Light Freezing Rain
2:15 PM -2.2 °F -24.1 °F -9.4 °F 71% 30.20 in 2.5 mi NW 18.4 mph 27.6 mph N/A Rain Light Freezing Rain
2:35 PM -4.0 °F -27.0 °F -9.4 °F 78% 30.20 in 3.0 mi NW 19.6 mph - N/A Rain Light Freezing Rain
2:55 PM -4.0 °F -29.1 °F -9.4 °F 78% 30.21 in 3.0 mi NW 24.2 mph 28.8 mph N/A Rain Light Freezing Rain
3:35 PM -4.0 °F -27.6 °F -11.2 °F 71% 30.23 in 8.0 mi NW 20.7 mph 26.5 mph N/A Rain Light Freezing Rain
3:55 PM -4.0 °F -25.8 °F -11.2 °F 71% 30.24 in 5.0 mi NW 17.3 mph 25.3 mph N/A   Haze
4:15 PM -4.0 °F -25.8 °F -11.2 °F 71% 30.24 in 5.0 mi NW 17.3 mph 21.9 mph N/A Rain Light Freezing Rain
4:35 PM -5.8 °F -28.2 °F -11.2 °F 77% 30.24 in 8.0 mi NW 17.3 mph 23.0 mph N/A   Unknown
4:55 PM -5.8 °F -28.2 °F -13.0 °F 71% 30.25 in 10.0 mi NW 17.3 mph - N/A   Unknown
5:15 PM -5.8 °F -31.0 °F -13.0 °F 71% 30.25 in 10.0 mi NW 23.0 mph - N/A   Unknown
5:35 PM -7.6 °F -29.8 °F -13.0 °F 77% 30.26 in 10.0 mi NW 16.1 mph - N/A   Unknown
5:55 PM -7.6 °F -31.1 °F -13.0 °F 77% 30.27 in 10.0 mi NW 18.4 mph - N/A   Unknown
6:15 PM -7.6 °F -31.1 °F -13.0 °F 77% 30.27 in 10.0 mi NW 18.4 mph - N/A   Unknown
6:35 PM -7.6 °F -31.1 °F -13.0 °F 77% 30.28 in 10.0 mi NW 18.4 mph - N/A   Unknown
6:55 PM -7.6 °F -29.8 °F -13.0 °F 77% 30.28 in 10.0 mi NW 16.1 mph - N/A   Unknown
7:15 PM -9.4 °F -32.1 °F -13.0 °F 84% 30.29 in 10.0 mi WNW 16.1 mph - N/A Snow Light Snow
7:35 PM -9.4 °F -31.4 °F -14.8 °F 77% 30.30 in 10.0 mi WNW 15.0 mph - N/A   Unknown
7:55 PM -9.4 °F -30.6 °F -14.8 °F 77% 30.31 in 10.0 mi WNW 13.8 mph - N/A   Unknown
8:15 PM -9.4 °F -29.8 °F -16.6 °F 71% 30.31 in 10.0 mi WNW 12.7 mph - N/A   Unknown
8:35 PM -9.4 °F -29.8 °F -16.6 °F 71% 30.32 in 10.0 mi WNW 12.7 mph - N/A   Unknown
8:55 PM -11.2 °F -32.1 °F -16.6 °F 77% 30.32 in 10.0 mi WNW 12.7 mph - N/A   Unknown
9:15 PM -11.2 °F -32.1 °F -16.6 °F 77% 30.33 in 10.0 mi WNW 12.7 mph - N/A   Unknown
9:35 PM -11.2 °F -30.1 °F -16.6 °F 77% 30.34 in 10.0 mi WNW 10.4 mph - N/A   Unknown
9:55 PM -11.2 °F -30.1 °F -16.6 °F 77% 30.34 in 10.0 mi WNW 10.4 mph - N/A   Unknown
10:15 PM -11.2 °F -30.1 °F -16.6 °F 77% 30.34 in - WNW 10.4 mph - N/A   Unknown
10:35 PM -11.2 °F -30.1 °F -16.6 °F 77% 30.35 in 10.0 mi WNW 10.4 mph - N/A   Unknown
10:55 PM -13.0 °F -32.4 °F -18.4 °F 77% 30.35 in - West 10.4 mph - N/A   Unknown
11:15 PM -13.0 °F -32.4 °F -18.4 °F 77% 30.35 in - West 10.4 mph - N/A   Unknown
11:35 PM -13.0 °F -34.3 °F -18.4 °F 77% 30.35 in - West 12.7 mph - N/A   Unknown
11:55 PM -13.0 °F -34.3 °F -18.4 °F 77% 30.36 in - West 12.7 mph - N/A   Unknown